Location: Unspecified
(0.0000°N, 0.0000°E)
Time: 06:23:02
(UTC+02:00)

H-2A R/B - Visible Passes

Search period start: 02 October 2014 00:00
Search period end: 12 October 2014 00:00
Orbit: 273 x 33601 km, 28.0° (Epoch: 27 September)

Date Brightness Start Highest point End Pass type
(mag) Time Alt. Az. Time Alt. Az. Time Alt. Az.
02 Oct 4.7 11:44:45 10° W 20:43:29 78° SW 20:51:16 10° SE visible
03 Oct 5.4 07:04:01 10° SW 07:17:59 77° SE 16:15:10 10° E visible
04 Oct 4.3 13:18:48 10° WNW 21:59:51 38° SW 18:33:22 10° WNW visible
06 Oct 5.6 03:55:22 13° SE 03:57:56 15° SE 04:08:19 10° E visible
06 Oct 9.1 08:23:22 10° ENE 10:52:21 18° ENE 12:12:44 10° ENE visible
08 Oct 4.9 05:07:21 23° S 05:13:28 41° SE 14:01:31 10° ENE visible
10 Oct 5.2 06:19:11 11° SW 06:30:46 73° SE 15:28:28 10° E visible
11 Oct 4.7 12:26:31 10° W 21:13:54 45° SW 21:20:16 10° SSE visible
